Location: ?????
(31.8092°N, 35.2590°E)
Time: 20:35:32
(UTC+00:00)

Helios 1B rocket - Pass Details

Date: 20 June 2021
Orbit: 573 x 583 km, 98.2° (Epoch: 23 July)

Event Time Altitude Azimuth Distance (km) Brightness Sun altitude
Rises 23:17:12 0° 13° (NNE) 2,785 7.0 -30.1°
Reaches altitude 10° 23:19:22 10° 14° (NNE) 1,883 5.9 -29.9°
Enters shadow 23:21:43 34° 18° (NNE) 955 4.0 -29.7°
